[[{"header":{"parameterUnit":"m.s-1","parameterCategory":1,"la1":30.2991,"la2":30.254,"lo1":-89.0895,"lo2":-89.0444,"dy":0.0017,"dx":0.0017,"nx":28,"ny":28,"refTime":"2023-07-31T21:00:00:Z","depth":0,"parameterNumber":2,"parameterNumberName":"U-component_of_WINDS"},"data":[0,0,0,0,0,0,0,0,0,0,0,0,0,0,0,0,0,0,0,0,0,0,0,0,0,0,0,0,0,0,0,0,0,0,0,0,0,0,0,0,0,0,0,0,0,0,0,0,0,0,0,0,0,0,0,0,0,0,0.7639,0.764,0,0.7729,0.773,0.7731,0.7748,0.7748,0.7747,0.7746,0.7843,0.7846,0.7849,0,0,0,0,0,0,0,0,0,0,0,0,0,0.7485,0.7488,0.7639,0.764,0.7641,0.7729,0.773,0.7731,0.7748,0.7748,0.7747,0.7746,0.7842,0.7846,0.785,0,0,0,0,0,0,0,0,0,0,0,0,0,0.7561,0.7489,0.7639,0.766,0.7663,0.7729,0.773,0.7732,0.7749,0.7748,0.7746,0.7745,0.7841,0.7845,0.785,0.7902,0,0,0.7865,0.7867,0,0,0,0,0,0,0,0,0.7557,0.7567,0.7656,0.7659,0.7662,0.7726,0.7711,0.7789,0.7749,0.7716,0.7746,0.7745,0.7805,0.7813,0.7832,0.7907,0.7911,0.7865,0.7868,0.7871,0.7872,0,0,0,0,0,0,0,0.7552,0.7563,0.7675,0.7657,0.7661,0.7666,0.7676,0.7726,0.7766,0.7719,0.772,0.7731,0.7807,0.7828,0.7835,0.7912,0.7865,0.787,0.7873,0.7875,0.8034,0.8036,0,0,0,0,0,0,0.7542,0.7559,0.7672,0.7677,0.7605,0.767,0.7681,0.7707,0.7765,0.7773,0.7731,0.7731,0.782,0.7829,0.7838,0.7903,0.787,0.7875,0.7878,0.8033,0.8035,0.8036,0,0,0,0,0,0,0.7539,0.7552,0.7668,0.7618,0.7634,0.7674,0.7703,0.7709,0.773,0.7775,0.7782,0.7745,0.7819,0.7831,0.7886,0.7907,0.7877,0.7882,0.8032,0.8034,0.8035,0.8033,0,0,0,0,0,0,0.7534,0.7551,0.757,0.7619,0.7636,0.7713,0.7704,0.7712,0.7738,0.7738,0.779,0.7797,0.7819,0.7879,0.7891,0.7913,0.7886,0.803,0.8032,0.8035,0.8032,0.8035,0.8038,0,0,0,0,0,0.7529,0.7567,0.7571,0.7584,0.7661,0.7714,0.7724,0.7748,0.7739,0.776,0.7789,0.7796,0.7902,0.7884,0.7898,0.7922,0.8029,0.8032,0.8035,0.8031,0.8035,0.8038,0,0,0,0,0,0,0.7521,0.7573,0.7579,0.7633,0.7669,0.7717,0.7743,0.7751,0.7791,0.779,0.7819,0.783,0.7883,0.7908,0.7887,0.7976,0.7965,0.7971,0.7957,0.7962,0.7965,0.7958,0.789,0,0,0,0,0,0.7525,0.7563,0.7607,0.7651,0.7669,0.7703,0.7727,0.7742,0.7781,0.7796,0.7829,0.7867,0.791,0.7937,0.7978,0.8035,0.8047,0.8059,0.8062,0.8064,0.8069,0.8102,0.8107,0.8046,0.8046,0.8046,0,0,0.7535,0.7568,0.7591,0.765,0.768,0.7719,0.7715,0.7757,0.7787,0.7803,0.7856,0.7881,0.7926,0.7982,0.8009,0.8005,0.8089,0.8068,0.8069,0.8073,0.8105,0.8111,0.8116,0.8048,0.8047,0.8047,0,0,0.7573,0.7602,0.7642,0.7671,0.7715,0.7737,0.7747,0.7794,0.7811,0.7864,0.7877,0.7913,0.7986,0.8017,0.8042,0.8092,0.81,0.8105,0.8121,0.8152,0.8157,0.8162,0.818,0.8186,0.811,0.811,0.811,0,0.758,0.7639,0.7662,0.7703,0.7729,0.7743,0.7785,0.7812,0.7868,0.7887,0.7881,0.7972,0.8003,0.8067,0.8079,0.8099,0.8111,0.8099,0.8154,0.8159,0.8164,0.8181,0.8188,0.811,0.811,0.811,0.811,0,0.7646,0.7686,0.7713,0.7765,0.7795,0.7836,0.7866,0.7893,0.7905,0.7929,0.7983,0.8021,0.807,0.8087,0.81,0.8152,0.8148,0.8148,0.8138,0.8169,0.8186,0.8193,0.811,0.811,0.811,0.811,0,0,0.7682,0.7745,0.7755,0.7778,0.7828,0.786,0.7903,0.7949,0.7972,0.8011,0.8047,0.8107,0.8107,0.8136,0.8153,0.818,0.8218,0.8177,0.8179,0.8183,0.8278,0.8278,0.8285,0.8223,0.8225,0.8226,0.8275,0,0.7726,0.78,0.7821,0.7884,0.7922,0.7936,0.7973,0.8008,0.8031,0.8068,0.8094,0.8136,0.8133,0.815,0.8178,0.8207,0.8237,0.8204,0.8259,0.826,0.8247,0.8294,0.8295,0.8339,0.8281,0.8283,0.8283,0,0.7787,0.7825,0.7891,0.7935,0.7952,0.7985,0.8029,0.8064,0.8104,0.8119,0.8151,0.8165,0.8211,0.8198,0.8262,0.8239,0.8263,0.828,0.8283,0.8289,0.8274,0.8302,0.8354,0.836,0.8294,0.8293,0.8292,0,0.7807,0.7874,0.7923,0.7943,0.7996,0.8018,0.8042,0.8081,0.8108,0.8147,0.8165,0.821,0.8234,0.8269,0.8296,0.8284,0.8357,0.8347,0.8372,0.8371,0.8387,0.8386,0.8443,0.8402,0.8402,0.8402,0.8401,0,0.7854,0.7894,0.7932,0.7962,0.8007,0.8032,0.8077,0.8102,0.8136,0.8172,0.8188,0.8221,0.8254,0.8292,0.8313,0.8362,0.8374,0.8388,0.8393,0.8386,0.8385,0.8402,0.84,0.8403,0.8403,0.8403,0.8402,0,0.7884,0.7911,0.7964,0.801,0.8022,0.8054,0.8094,0.8124,0.8147,0.8192,0.8204,0.8241,0.8287,0.8316,0.8375,0.8389,0.8443,0.8448,0.8429,0.8432,0.8455,0.8452,0.8526,0.8537,0.8488,0.8489,0.8489,0,0.7912,0.7943,0.7992,0.8016,0.8039,0.8078,0.8105,0.8131,0.8159,0.8207,0.8232,0.8278,0.8316,0.8388,0.8421,0.8466,0.8472,0.8495,0.8479,0.8471,0.8473,0.847,0.8474,0.8497,0.8498,0.8498,0.8498,0,0.796,0.7971,0.8009,0.8051,0.8083,0.8118,0.8153,0.8172,0.8205,0.8235,0.8281,0.8311,0.837,0.8416,0.8463,0.8489,0.85,0.8503,0.8511,0.8505,0.8493,0.85,0.8436,0.8501,0.8501,0.8501,0.85,0.85,0.799,0.8018,0.8056,0.8098,0.8127,0.8159,0.8189,0.8216,0.8254,0.8303,0.8317,0.8365,0.8405,0.847,0.8496,0.8535,0.8533,0.8545,0.8548,0.855,0.855,0.8486,0.8544,0.8544,0.8544,0.8544,0.8544,0,0.8038,0.8064,0.8101,0.8149,0.8182,0.8187,0.8227,0.8254,0.8296,0.8332,0.8368,0.8421,0.8466,0.8502,0.8548,0.8573,0.8578,0.8584,0.8582,0.8588,0.855,0.8538,0.8578,0.8578,0.8578,0.8578,0.8578,0.8578,0.8067,0.8115,0.8131,0.8194,0.8219,0.8265,0.8287,0.8318,0.8346,0.8404,0.8441,0.8463,0.85,0.8549,0.859,0.86,0.8616,0.8621,0.8631,0.8595,0.8591,0.8587,0.8576,0.8624,0.8624,0.8666,0.8667,0.8667]},{"header":{"parameterUnit":"m.s-1","parameterCategory":1,"la1":30.2991,"la2":30.254,"lo1":-89.0895,"lo2":-89.0444,"dy":0.0017,"dx":0.0017,"nx":28,"ny":28,"refTime":"2023-07-31T21:00:00:Z","depth":0,"parameterNumber":3,"parameterNumberName":"V-component_of_WINDS"},"data":[0,0,0,0,0,0,0,0,0,0,0,0,0,0,0,0,0,0,0,0,0,0,0,0,0,0,0,0,0,0,0,0,0,0,0,0,0,0,0,0,0,0,0,0,0,0,0,0,0,0,0,0,0,0,0,0,0,0,1.3759,1.3759,0,1.3731,1.3731,1.373,1.3705,1.3705,1.3705,1.3705,1.3673,1.3672,1.3672,0,0,0,0,0,0,0,0,0,0,0,0,0,1.3786,1.3786,1.3759,1.3759,1.3759,1.3731,1.3731,1.373,1.3705,1.3705,1.3705,1.3704,1.3673,1.3672,1.3672,0,0,0,0,0,0,0,0,0,0,0,0,0,1.3768,1.3786,1.3759,1.3743,1.3741,1.3731,1.3731,1.373,1.3706,1.3705,1.3705,1.3704,1.3673,1.3672,1.3672,1.3674,0,0,1.3669,1.3668,0,0,0,0,0,0,0,0,1.3769,1.3767,1.3746,1.3744,1.3742,1.3721,1.3728,1.3711,1.3706,1.3719,1.3705,1.3704,1.3689,1.3687,1.3682,1.3673,1.3672,1.3669,1.3668,1.3668,1.3668,0,0,0,0,0,0,0,1.377,1.3768,1.3748,1.3745,1.3743,1.3735,1.3732,1.3725,1.3707,1.3718,1.3716,1.3713,1.3688,1.3683,1.3682,1.3671,1.3669,1.3668,1.3668,1.3667,1.3658,1.3658,0,0,0,0,0,0,1.3775,1.3769,1.3749,1.3747,1.3755,1.3735,1.3732,1.3728,1.3707,1.3703,1.3713,1.3712,1.3685,1.3683,1.368,1.3679,1.3668,1.3667,1.3667,1.3657,1.3658,1.3658,0,0,0,0,0,0,1.3775,1.3773,1.375,1.3758,1.3754,1.3735,1.3732,1.3728,1.3723,1.3703,1.37,1.3712,1.3685,1.3682,1.3675,1.3678,1.3667,1.3666,1.3657,1.3658,1.3658,1.368,0,0,0,0,0,0,1.3776,1.3774,1.3776,1.3758,1.3754,1.3747,1.3732,1.3728,1.3722,1.372,1.3701,1.3698,1.3684,1.3677,1.3674,1.3677,1.3665,1.3657,1.3657,1.3658,1.3679,1.3681,1.3683,0,0,0,0,0,1.3777,1.3784,1.3776,1.3774,1.3757,1.3748,1.3745,1.373,1.3723,1.3724,1.371,1.3699,1.3678,1.3676,1.3673,1.3676,1.3657,1.3657,1.3658,1.3678,1.368,1.3683,0,0,0,0,0,0,1.3803,1.3781,1.3773,1.3774,1.3763,1.3743,1.3745,1.3734,1.3724,1.3722,1.3703,1.3698,1.3694,1.3684,1.3682,1.3675,1.3665,1.3666,1.3682,1.3684,1.3686,1.3688,1.3664,0,0,0,0,0,1.3808,1.3804,1.3785,1.3787,1.3782,1.3764,1.376,1.3749,1.3736,1.3731,1.3717,1.3704,1.3694,1.3689,1.3679,1.3677,1.3671,1.3676,1.3679,1.368,1.368,1.3675,1.3676,1.366,1.366,1.366,0,0,1.382,1.3808,1.3806,1.3792,1.3782,1.3776,1.3761,1.3756,1.375,1.373,1.3723,1.3712,1.3696,1.3691,1.3688,1.3683,1.3683,1.3681,1.3683,1.3682,1.3676,1.3677,1.3679,1.3661,1.3661,1.366,0,0,1.3838,1.3829,1.3829,1.3819,1.3804,1.3791,1.3791,1.3773,1.3765,1.3757,1.3741,1.3733,1.3718,1.3706,1.3698,1.3707,1.3695,1.3704,1.3715,1.371,1.3711,1.3712,1.3713,1.3714,1.3704,1.3705,1.3705,0,1.3854,1.3846,1.383,1.3825,1.3818,1.3799,1.3796,1.3787,1.3769,1.3764,1.3758,1.3736,1.3724,1.3714,1.3716,1.3711,1.3708,1.3707,1.3712,1.3713,1.3714,1.3714,1.3715,1.3706,1.3706,1.3705,1.3705,0,1.3865,1.3859,1.386,1.3843,1.3836,1.3833,1.3814,1.3808,1.3797,1.3784,1.3774,1.3759,1.3744,1.3741,1.373,1.3728,1.3725,1.3716,1.3706,1.3717,1.3717,1.3717,1.3707,1.3707,1.3707,1.3706,0,0,1.39,1.3872,1.3872,1.3863,1.3843,1.3838,1.3831,1.3817,1.3811,1.3799,1.3792,1.3777,1.3768,1.3759,1.3746,1.3742,1.3746,1.3732,1.3732,1.3734,1.374,1.3746,1.3747,1.3738,1.3738,1.3738,1.3741,0,1.3913,1.3903,1.3886,1.388,1.3873,1.3853,1.3847,1.3833,1.382,1.381,1.3795,1.3785,1.3774,1.3768,1.3763,1.3747,1.3747,1.3746,1.3729,1.3728,1.3733,1.3747,1.3755,1.3758,1.3741,1.3741,1.3741,0,1.3927,1.3915,1.3909,1.3887,1.3883,1.3879,1.3862,1.3854,1.3836,1.3827,1.3815,1.3801,1.379,1.3781,1.3765,1.3765,1.3757,1.3747,1.3747,1.3744,1.3735,1.3744,1.3759,1.376,1.3741,1.3741,1.3741,0,1.395,1.3933,1.3925,1.3918,1.3893,1.389,1.3879,1.3861,1.3852,1.3838,1.3831,1.3815,1.3806,1.3793,1.3773,1.3769,1.3758,1.3749,1.3748,1.3749,1.3747,1.3747,1.3761,1.3743,1.3743,1.3743,1.3743,0,1.3966,1.3962,1.3935,1.3931,1.3925,1.3905,1.3899,1.3886,1.3869,1.386,1.3842,1.3833,1.3808,1.3796,1.378,1.3768,1.3764,1.3755,1.3751,1.3756,1.3757,1.375,1.3749,1.3743,1.3743,1.3743,1.3743,0,1.3991,1.3973,1.3963,1.394,1.3933,1.393,1.3908,1.3902,1.3887,1.3875,1.3871,1.3848,1.3832,1.3811,1.3789,1.3778,1.3767,1.3761,1.3773,1.377,1.3771,1.377,1.3779,1.3778,1.3763,1.3763,1.3763,0,1.4001,1.3998,1.3973,1.3966,1.3956,1.3945,1.3935,1.3915,1.3905,1.3883,1.3879,1.3861,1.3847,1.3822,1.3801,1.3783,1.3776,1.378,1.3773,1.3778,1.3774,1.3774,1.3772,1.3782,1.3782,1.3782,1.3783,0,1.4021,1.4012,1.4,1.3984,1.3974,1.396,1.3945,1.394,1.3915,1.3905,1.3889,1.3878,1.3854,1.3836,1.3815,1.3801,1.3787,1.3785,1.3783,1.3789,1.3795,1.379,1.3777,1.3785,1.3784,1.3784,1.3784,1.3784,1.4038,1.4033,1.4014,1.4,1.3987,1.3973,1.3965,1.3949,1.3935,1.3915,1.3903,1.3886,1.3865,1.3836,1.3822,1.3807,1.3802,1.3801,1.38,1.38,1.3801,1.3798,1.3804,1.3804,1.3803,1.3803,1.3803,0,1.4055,1.4042,1.4029,1.4009,1.3997,1.3986,1.3968,1.3958,1.3945,1.3927,1.3912,1.3892,1.3874,1.3851,1.3831,1.3824,1.3816,1.3819,1.3819,1.3815,1.3808,1.381,1.3825,1.3825,1.3825,1.3825,1.3825,1.3825,1.4063,1.4052,1.404,1.4022,1.4008,1.3993,1.3983,1.3969,1.3955,1.3933,1.3918,1.3904,1.3883,1.3861,1.3843,1.3836,1.3829,1.3833,1.3825,1.3818,1.3816,1.3814,1.3816,1.3832,1.3832,1.3833,1.3833,1.3833]}]]